Regional Weather Roundup
Issued by NWS

Home | Current Version | Previous Version | Text Only | Print | Product List | Glossary Off
Versions: 1 2 3 4 5 6 7 8 9 10 11 12 13 14 15 16 17 18 19 20 21 22 23 24 25 26 27 28 29 30 31 32 33 34 35 36 37 38 39 40 41 42 43 44 45 46 47 48 49 50

000
ASUS43 KBIS 090210
RWRND

NORTH DAKOTA REGIONAL WEATHER ROUNDUP
NATIONAL WEATHER SERVICE BISMARCK ND
800 PM CST THU DEC 08 2016

NOTE: "FAIR" INDICATES FEW OR NO CLOUDS BELOW 12,000 FEET WITH NO
SIGNIFICANT WEATHER AND/OR OBSTRUCTIONS TO VISIBILITY.


NDZ001>003-009>011-017-090300-
NORTHWEST NORTH DAKOTA

CITY           SKY/WX    TMP DP  RH WIND       PRES   REMARKS
WILLISTON      CLOUDY    -8 -14  74 CALM      30.59F
MINOT          PTCLDY    -2  -8  76 W13       30.58S WCI -20
MINOT AFB      CLEAR     -6 -11  76 W12       30.58S WCI -24
$$

NDZ018>021-031>035-040>046-090300-
SOUTHWEST NORTH DAKOTA

CITY           SKY/WX    TMP DP  RH WIND       PRES   REMARKS
BISMARCK       CLOUDY    -2  -8  76 W5        30.62S WCI -12
DICKINSON      CLOUDY   -10 -16  74 W3        30.49F
GARRISON         N/A     -7 -13  75 NW12      30.58S WCI -26
HETTINGER ARPT CLOUDY   -12 -16  82 CALM      30.51F
$$

NDZ004>008-012>016-024-026-027-054-090300-
NORTHEAST NORTH DAKOTA

CITY           SKY/WX    TMP DP  RH WIND       PRES   REMARKS
GRAND FORKS    CLOUDY    11   4  73 NW12      30.58F WCI  -3
GRND FRKS AFB  CLOUDY     9   3  78 NW8       30.58S WCI  -4
DEVILS LAKE    FLURRIES   0  -5  79 NW15      30.57S WCI -19
$$

NDZ022-023-025-028>030-036>039-047>053-090300-
SOUTHEAST NORTH DAKOTA

CITY           SKY/WX    TMP DP  RH WIND       PRES   REMARKS
FARGO          CLOUDY     7   0  73 W13       30.59S WCI  -9
JAMESTOWN      CLEAR     -3  -8  79 NW14      30.57F WCI -22
$$





USA.gov is the U.S. government's official web portal to all federal, state and local government web resources and services.